Flag for New Zealand Weather past 2 weeks in Wellington, New Zealand

Now
45 °F

Passing clouds.


Feels Like: 42 °F
Forecast: 44 / 54 °F
Wind: 5 mph from Northeast

Location: Wellington Airport

Current Time: May 29, 2015 at 1:33:17 AM

Latest Report: May 29, 2015 at 1:00 AM


Visibility: N/A

Pressure: 30.39 "Hg

Humidity: 87%

Dew point: 41 °F

Location of WellingtonLocation

Historic Weather in Wellington — Graph

°F

Wellington temperature yesterday

Maximum temperature yesterday: 54 °F (at 2:00 PM)
Minimum temperature yesterday: 41 °F (at 7:00 AM)
Average temperature yesterday: 48 °F

Past Weeks' High & Low Weather Summary

 TemperatureHumidityPressure
High64 °F (May 21, 3:30 PM)100% (May 15, 12:30 AM)30.39 "Hg (May 15, 12:30 AM)
Low36 °F (May 26, 6:00 AM)33% (May 26, 4:00 PM)29.33 "Hg (May 15, 4:00 AM)
Average53 °F74%29.84 "Hg
* Reported Midnight between May 13 and May 14 — May 29 12:30 AM, Wellington, Weather by CustomWeather, © 2015

Note: Actual official high and low records may vary slightly from our data, if they occured in-between our weather recording intervals... More about our weather records

Advertising

Wellington weather history for previous 24 hours

 ConditionsComfort  
Time TempWeatherWind HumidityBarometerVisibility
12:30 AM
Fri, May 29
45 °FPassing clouds.7 mph87%30.39 "HgN/A
12:00 AM45 °FPassing clouds.5 mph87%30.39 "HgN/A
11:30 PM
Thu, May 28
45 °FPartly cloudy.6 mph87%30.39 "HgN/A
11:00 PM45 °FPassing clouds.5 mph87%30.39 "HgN/A
10:30 PM45 °FPassing clouds.3 mph93%30.39 "HgN/A
10:00 PM45 °FPassing clouds.3 mph87%30.39 "HgN/A
9:30 PM45 °FPassing clouds.5 mph93%30.39 "HgN/A
9:00 PM45 °FQuite cool.5 mph93%30.39 "HgN/A
8:30 PM45 °FPassing clouds.5 mph87%30.39 "HgN/A
8:00 PM46 °FCool.3 mph87%30.36 "HgN/A
7:30 PM46 °FCool.3 mph82%30.36 "HgN/A
7:00 PM50 °FCool.6 mph76%30.36 "HgN/A
6:30 PM50 °FPassing clouds.5 mph76%30.36 "HgN/A
6:00 PM50 °FCool.6 mph76%30.33 "HgN/A
5:30 PM50 °FPassing clouds.6 mph76%30.33 "HgN/A
5:00 PM52 °FPartly cloudy.7 mph77%30.33 "HgN/A
4:30 PM52 °FPassing clouds.6 mph77%30.33 "Hg5 mi
4:00 PM52 °FScattered clouds.2 mph67%30.33 "HgN/A
3:30 PM54 °FCool.3 mph67%30.30 "HgN/A
3:00 PM54 °FCool.6 mph67%30.30 "HgN/A
2:30 PM54 °FCool.6 mph67%30.30 "HgN/A
2:00 PM54 °FCool.1 mph72%30.30 "Hg4 mi
1:30 PM52 °FScattered clouds.2 mph77%30.33 "Hg5 mi
1:00 PM52 °FPartly sunny.3 mph72%30.33 "HgN/A
12:30 PM50 °FMostly cloudy.6 mph76%30.33 "HgN/A
12:00 PM50 °FPartly sunny.6 mph76%30.33 "HgN/A
11:30 AM52 °FPartly sunny.7 mph72%30.33 "HgN/A
11:00 AM50 °FPartly sunny.3 mph76%30.33 "HgN/A
10:30 AM48 °FPassing clouds.7 mph76%30.33 "HgN/A
10:00 AM48 °FCool.5 mph76%30.30 "HgN/A
9:30 AM46 °FCool.6 mph82%30.30 "HgN/A
9:00 AM45 °FQuite cool.5 mph87%30.30 "HgN/A
8:30 AM43 °FQuite cool.6 mph87%30.30 "HgN/A
8:00 AM43 °FQuite cool.6 mph87%30.30 "HgN/A
7:30 AM43 °FQuite cool.3 mph87%30.27 "HgN/A
7:00 AM41 °FQuite cool.5 mph93%30.27 "HgN/A
6:30 AM43 °FQuite cool.3 mph87%30.27 "HgN/A
6:00 AM43 °FPassing clouds.6 mph87%30.24 "HgN/A
5:30 AM45 °FPassing clouds.7 mph87%30.24 "HgN/A
5:00 AM45 °FPartly cloudy.7 mph87%30.24 "HgN/A
4:30 AM48 °FPartly cloudy.6 mph76%30.24 "HgN/A
4:00 AM50 °FPassing clouds.7 mph76%30.24 "Hg5 mi
3:30 AM50 °FPassing clouds.9 mph76%30.24 "Hg4 mi
3:00 AM52 °FPassing clouds.9 mph72%30.24 "Hg4 mi
2:30 AM52 °FPassing clouds.12 mph72%30.21 "Hg4 mi
2:00 AM50 °FPassing clouds.13 mph76%30.21 "Hg4 mi
1:30 AM52 °FPassing clouds.14 mph77%30.21 "Hg3 mi
1:00 AM50 °FPassing clouds.15 mph76%30.21 "Hg4 mi
Weather by CustomWeather, © 2015

See weather overviewHow to use our weather pages